Location: Newark
(9.5976°N, 77.1728°E)
Time: 16:24:06
(UTC+00:00)

LightSail 2 - Visible Passes

Search period start: 11 December 2019 00:00
Search period end: 21 December 2019 00:00
Orbit: 696 x 729 km, 24.0° (Epoch: 10 December)

Date Brightness Start Highest point End Pass type
(mag) Time Alt. Az. Time Alt. Az. Time Alt. Az.
11 Dec 5.4 13:38:55 10° NW 13:43:54 48° NNE 13:45:47 33° ENE visible
11 Dec 8.0 15:24:30 10° W 15:24:48 12° W 15:24:48 12° W visible
12 Dec 5.3 14:26:12 10° WNW 14:31:00 68° SW 14:31:00 68° SW visible
13 Dec 5.1 13:28:01 10° WNW 13:33:13 81° NNE 13:37:19 16° ESE visible
13 Dec 7.5 15:14:20 10° W 15:16:21 19° WSW 15:16:21 19° WSW visible
14 Dec 6.3 14:15:44 10° W 14:20:33 39° SSW 14:22:47 26° SSE visible
15 Dec 5.8 13:17:19 10° WNW 13:22:26 58° SSW 13:27:30 10° SE visible
15 Dec 7.6 15:04:55 10° WSW 15:07:54 15° SSW 15:08:19 15° SSW visible
16 Dec 7.3 14:05:44 10° WSW 14:09:45 22° SSW 14:13:43 10° SSE visible
17 Dec 6.9 13:06:57 10° W 13:11:35 32° SSW 13:16:11 10° SE visible
17 Dec 7.9 23:49:56 10° S 23:52:05 13° SSE 23:54:15 10° SE visible
18 Dec 7.9 13:56:46 10° SW 13:58:56 13° SSW 14:01:07 10° S visible
19 Dec 6.9 00:34:54 10° SW 00:39:26 33° SSE 00:44:00 10° E visible
19 Dec 7.8 12:57:09 10° WSW 13:00:43 18° SSW 13:04:17 10° SSE visible
19 Dec 7.3 23:37:21 10° SSW 23:41:17 23° SSE 23:45:14 10° ESE visible
20 Dec 7.6 22:41:22 13° S 22:43:06 16° SSE 22:46:05 10° ESE visible
